Hourly Data Report for May 23, 2012

All times are specified in Local Standard Time (LST). Add 1 hour to adjust for Daylight Saving Time where and when it is observed.

YARMOUTH A
NOVA SCOTIA

43°49'37.000" N
66°05'17.000" W
42.90 m
8206495
71603
YQI

Download Data

Hourly Data (May 2012)
Hourly Data Report for May 23, 2012
Temp Definition
°C
Dew Point Temp Definition
°C
Rel Hum Definition
%
Wind Dir Definition
10's deg

Wind Spd Definition
km/h
Visibility Definition
km
Stn Press Definition
kPa
Hmdx Definition


Wind Chill Definition


Weather Definition


TIME
00:00 Legend Double Dagger 15.2 14.9 98 7 10 10.0 100.47     LegendNANA
01:00 Legend Double Dagger 14.9 14.9 100 7 14 8.1 100.42     Drizzle,Fog
02:00 Legend Double Dagger 14.9 14.9 100 7 13 10.0 100.39     Cloudy
03:00 Legend Double Dagger 14.8 14.8 100 9 9 10.0 100.37     LegendNANA
04:00 Legend Double Dagger 14.7 14.7 100 7 6 3.2 100.36     Drizzle,Fog
05:00 Legend Double Dagger 14.7 14.7 100 8 7 2.4 100.37     Drizzle,Fog
06:00 Legend Double Dagger 14.8 15.0 101 7 6 1.6 100.42     Drizzle,Fog
07:00 Legend Double Dagger 15.2 15.1 99 8 8 9.7 100.47     Fog
08:00 Legend Double Dagger 16.2 15.4 95 3 8 10.0 100.49     Cloudy
09:00 Legend Double Dagger 17.1 15.6 91 34 11 10.0 100.56     LegendNANA
10:00 Legend Double Dagger 17.8 16.0 89 29 12 10.0 100.59     LegendNANA
11:00 Legend Double Dagger 17.7 15.4 86 32 10 10.0 100.58     Mostly Cloudy
12:00 Legend Double Dagger 22.3 16.9 71 2 17 10.0 100.60 28   LegendNANA
13:00 Legend Double Dagger 19.1 15.4 79 33 26 10.0 100.63     LegendNANA
14:00 Legend Double Dagger 22.8 17.1 70 33 25 10.0 100.66 28   Mostly Cloudy
15:00 Legend Double Dagger 22.4 16.3 68 33 25 10.0 100.72 27   LegendNANA
16:00 Legend Double Dagger 21.3 16.1 72 33 31 10.0 100.75 26   LegendNANA
17:00
18:00 Legend Double Dagger 16.6 14.8 89 34 28 10.0 100.88     LegendNANA
19:00 Legend Double Dagger 15.2 13.8 91 33 22 10.0 100.92     LegendNANA
20:00 Legend Double Dagger 14.1 13.0 93 32 12 10.0 101.02     Mostly Cloudy
21:00 Legend Double Dagger 17.3 14.4 83 3 16 10.0 101.10     LegendNANA
22:00 Legend Double Dagger 15.4 13.1 86 2 12 10.0 101.18     LegendNANA
23:00 Legend Double Dagger 14.2 12.4 89 4 10 10.0 101.26     Mainly Clear

Notes on Data Quality.

Legend

  • E = Estimated
  • M = Missing
  • NA = Not Available
  • ‡ = Partner data that is not subject to review by the National Climate Archives
Date modified: